Station Historical Data
Daily Summary for January 12, 2017 Units:  English    Metric   Both
« Previous Day
Next Day »
Daily Weekly Monthly Yearly Custom
  High: Low: Average:
Temperature: 38.5 °F 33.6 °F 36.3 °F
Dew Point: 37.5 °F 32.6 °F 35.3 °F
Humidity: 96 % 96 % 96 %
Wind Speed: 8.0 mph 0.0 mph 0.1 mph
Wind Gust: 12.0 mph - -
Wind:- - SSW
Pressure: 30.12 in 29.87 in -
Precipitation: 0.00 in    
Historical Graphs
 
 
Tabular Data for January 12, 2017
Time Temperature Dew Point Pressure Wind Wind Speed Wind Gust Humidity Rainfall Rate (Hourly) solar
00:03 35.7 °F 34.7 °F 29.96 in Calm   1.0 mph 96 % 0.00 in 0.00 W/m2
00:08 35.7 °F 34.7 °F 29.95 in Calm   1.0 mph 96 % 0.00 in 0.00 W/m2
00:13 35.6 °F 34.6 °F 29.95 in Calm     96 % 0.00 in 0.00 W/m2
00:18 35.6 °F 34.6 °F 29.95 in Calm     96 % 0.00 in 0.00 W/m2
00:23 35.6 °F 34.6 °F 29.95 in Calm     96 % 0.00 in 0.00 W/m2
00:28 35.6 °F 34.6 °F 29.95 in Calm   1.0 mph 96 % 0.00 in 0.00 W/m2
00:33 35.6 °F 34.6 °F 29.94 in Calm   1.0 mph 96 % 0.00 in 0.00 W/m2
00:38 35.6 °F 34.6 °F 29.94 in Calm   1.0 mph 96 % 0.00 in 0.00 W/m2
00:43 35.6 °F 34.6 °F 29.94 in Calm   1.0 mph 96 % 0.00 in 0.00 W/m2
00:48 35.7 °F 34.7 °F 29.94 in Calm     96 % 0.00 in 0.00 W/m2
00:53 35.7 °F 34.7 °F 29.94 in Calm   1.0 mph 96 % 0.00 in 0.00 W/m2
00:58 35.7 °F 34.7 °F 29.94 in Calm     96 % 0.00 in 0.00 W/m2
01:00 35.7 °F 34.7 °F 29.94 in Calm   1.0 mph 96 % 0.00 in 0.00 W/m2
01:05 35.8 °F 34.8 °F 29.94 in Calm   9.0 mph 96 % 0.00 in 0.00 W/m2
01:10 35.8 °F 34.8 °F 29.94 in ESE 8.0 mph 11.0 mph 96 % 0.00 in 0.00 W/m2
01:15 35.9 °F 34.9 °F 29.94 in Calm   9.0 mph 96 % 0.00 in 0.00 W/m2
01:20 35.9 °F 34.9 °F 29.94 in Calm   12.0 mph 96 % 0.00 in 0.00 W/m2
01:25 36.0 °F 35.0 °F 29.94 in Calm   9.0 mph 96 % 0.00 in 0.00 W/m2
01:30 36.0 °F 35.0 °F 29.94 in Calm     96 % 0.00 in 0.00 W/m2
01:35 36.0 °F 35.0 °F 29.94 in Calm   1.0 mph 96 % 0.00 in 0.00 W/m2
01:40 36.0 °F 35.0 °F 29.94 in Calm   7.0 mph 96 % 0.00 in 0.00 W/m2
01:45 36.0 °F 35.0 °F 29.94 in Calm   1.0 mph 96 % 0.00 in 0.00 W/m2
01:50 36.0 °F 35.0 °F 29.94 in Calm     96 % 0.00 in 0.00 W/m2
01:55 36.0 °F 35.0 °F 29.94 in Calm     96 % 0.00 in 0.00 W/m2
02:00 36.0 °F 35.0 °F 29.94 in Calm   1.0 mph 96 % 0.00 in 0.00 W/m2
02:05 36.1 °F 35.1 °F 29.94 in Calm   1.0 mph 96 % 0.00 in 0.00 W/m2
02:10 36.1 °F 35.1 °F 29.94 in Calm   1.0 mph 96 % 0.00 in 0.00 W/m2
02:15 36.1 °F 35.1 °F 29.94 in Calm     96 % 0.00 in 0.00 W/m2
02:20 36.2 °F 35.2 °F 29.94 in Calm     96 % 0.00 in 0.00 W/m2
02:25 36.2 °F 35.2 °F 29.94 in Calm     96 % 0.00 in 0.00 W/m2
02:30 36.3 °F 35.3 °F 29.94 in Calm   1.0 mph 96 % 0.00 in 0.00 W/m2
02:35 36.3 °F 35.3 °F 29.94 in Calm   1.0 mph 96 % 0.00 in 0.00 W/m2
02:40 36.4 °F 35.4 °F 29.94 in ESE 1.0 mph 1.0 mph 96 % 0.00 in 0.00 W/m2
02:45 36.4 °F 35.4 °F 29.94 in Calm   1.0 mph 96 % 0.00 in 0.00 W/m2
02:50 36.4 °F 35.4 °F 29.93 in Calm   1.0 mph 96 % 0.00 in 0.00 W/m2
02:55 36.5 °F 35.5 °F 29.94 in Calm   1.0 mph 96 % 0.00 in 0.00 W/m2
03:00 36.5 °F 35.5 °F 29.93 in Calm   1.0 mph 96 % 0.00 in 0.00 W/m2
03:05 36.6 °F 35.6 °F 29.93 in Calm     96 % 0.00 in 0.00 W/m2
03:10 36.6 °F 35.6 °F 29.93 in Calm     96 % 0.00 in 0.00 W/m2
03:15 36.6 °F 35.6 °F 29.93 in Calm     96 % 0.00 in 0.00 W/m2
03:20 36.7 °F 35.7 °F 29.93 in Calm     96 % 0.00 in 0.00 W/m2
03:25 36.7 °F 35.7 °F 29.93 in Calm     96 % 0.00 in 0.00 W/m2
03:30 36.7 °F 35.7 °F 29.92 in Calm     96 % 0.00 in 0.00 W/m2
03:35 36.7 °F 35.7 °F 29.92 in Calm     96 % 0.00 in 0.00 W/m2
03:40 36.7 °F 35.7 °F 29.92 in Calm     96 % 0.00 in 0.00 W/m2
03:45 36.7 °F 35.7 °F 29.92 in Calm     96 % 0.00 in 0.00 W/m2
03:47 36.8 °F 35.8 °F 29.91 in Calm     96 % 0.00 in 0.00 W/m2
03:52 36.8 °F 35.8 °F 29.91 in Calm     96 % 0.00 in 0.00 W/m2
03:57 36.8 °F 35.8 °F 29.91 in Calm     96 % 0.00 in 0.00 W/m2
04:02 36.8 °F 35.8 °F 29.91 in Calm     96 % 0.00 in 0.00 W/m2
04:07 36.7 °F 35.7 °F 29.90 in Calm     96 % 0.00 in 0.00 W/m2
04:12 36.7 °F 35.7 °F 29.90 in Calm     96 % 0.00 in 0.00 W/m2
04:17 36.7 °F 35.7 °F 29.90 in Calm     96 % 0.00 in 0.00 W/m2
04:22 36.6 °F 35.6 °F 29.90 in Calm     96 % 0.00 in 0.00 W/m2
04:27 36.6 °F 35.6 °F 29.90 in Calm     96 % 0.00 in 0.00 W/m2
04:32 36.6 °F 35.6 °F 29.90 in Calm     96 % 0.00 in 0.00 W/m2
04:37 36.6 °F 35.6 °F 29.89 in Calm     96 % 0.00 in 0.00 W/m2
04:42 36.7 °F 35.7 °F 29.89 in Calm     96 % 0.00 in 0.00 W/m2
04:47 36.7 °F 35.7 °F 29.89 in Calm     96 % 0.00 in 0.00 W/m2
04:52 36.7 °F 35.7 °F 29.89 in Calm     96 % 0.00 in 0.00 W/m2
04:57 36.6 °F 35.6 °F 29.89 in Calm     96 % 0.00 in 0.00 W/m2
05:02 36.6 °F 35.6 °F 29.89 in Calm     96 % 0.00 in 0.00 W/m2
05:07 36.6 °F 35.6 °F 29.88 in Calm   1.0 mph 96 % 0.00 in 0.00 W/m2
05:12 36.5 °F 35.5 °F 29.88 in Calm   1.0 mph 96 % 0.00 in 0.00 W/m2
05:17 36.5 °F 35.5 °F 29.87 in Calm   1.0 mph 96 % 0.00 in 0.00 W/m2
05:22 36.4 °F 35.4 °F 29.88 in Calm     96 % 0.00 in 0.00 W/m2
05:27 36.4 °F 35.4 °F 29.88 in Calm   1.0 mph 96 % 0.00 in 0.00 W/m2
05:32 36.4 °F 35.4 °F 29.88 in Calm   1.0 mph 96 % 0.00 in 0.00 W/m2
05:37 36.4 °F 35.4 °F 29.88 in Calm     96 % 0.00 in 0.00 W/m2
05:42 36.4 °F 35.4 °F 29.88 in Calm     96 % 0.00 in 0.00 W/m2
05:47 36.4 °F 35.4 °F 29.88 in Calm   1.0 mph 96 % 0.00 in 0.00 W/m2
05:52 36.5 °F 35.5 °F 29.89 in Calm   1.0 mph 96 % 0.00 in 0.00 W/m2
05:57 36.5 °F 35.5 °F 29.89 in Calm   1.0 mph 96 % 0.00 in 0.00 W/m2
06:02 36.5 °F 35.5 °F 29.89 in Calm   1.0 mph 96 % 0.00 in 0.00 W/m2
06:07 36.5 °F 35.5 °F 29.89 in Calm   1.0 mph 96 % 0.00 in 0.00 W/m2
06:12 36.6 °F 35.6 °F 29.89 in Calm   1.0 mph 96 % 0.00 in 0.00 W/m2
06:17 36.6 °F 35.6 °F 29.89 in Calm   1.0 mph 96 % 0.00 in 0.00 W/m2
06:22 36.6 °F 35.6 °F 29.89 in Calm   1.0 mph 96 % 0.00 in 0.00 W/m2
06:27 36.6 °F 35.6 °F 29.89 in Calm   1.0 mph 96 % 0.00 in 0.00 W/m2
06:32 36.7 °F 35.7 °F 29.89 in Calm   1.0 mph 96 % 0.00 in 0.00 W/m2
06:37 36.7 °F 35.7 °F 29.89 in Calm   5.0 mph 96 % 0.00 in 0.00 W/m2
06:42 36.7 °F 35.7 °F 29.89 in Calm   1.0 mph 96 % 0.00 in 0.00 W/m2
06:47 36.7 °F 35.7 °F 29.89 in Calm   12.0 mph 96 % 0.00 in 0.00 W/m2
06:52 36.7 °F 35.7 °F 29.89 in Calm   1.0 mph 96 % 0.00 in 0.00 W/m2
06:57 36.7 °F 35.7 °F 29.89 in Calm     96 % 0.00 in 0.00 W/m2
07:03 36.7 °F 35.7 °F 29.89 in ESE 6.0 mph 11.0 mph 96 % 0.00 in 0.00 W/m2
07:08 36.6 °F 35.6 °F 29.89 in Calm     96 % 0.00 in 0.00 W/m2
07:13 36.6 °F 35.6 °F 29.90 in Calm   1.0 mph 96 % 0.00 in 0.00 W/m2
07:18 36.6 °F 35.6 °F 29.90 in Calm   2.0 mph 96 % 0.00 in 0.00 W/m2
07:23 36.6 °F 35.6 °F 29.90 in Calm     96 % 0.00 in 0.00 W/m2
07:28 36.5 °F 35.5 °F 29.90 in Calm     96 % 0.00 in 0.00 W/m2
07:33 36.5 °F 35.5 °F 29.90 in Calm     96 % 0.00 in 0.00 W/m2
07:38 36.4 °F 35.4 °F 29.91 in Calm     96 % 0.00 in 0.00 W/m2
07:43 36.4 °F 35.4 °F 29.91 in Calm     96 % 0.00 in 0.00 W/m2
07:48 36.4 °F 35.4 °F 29.91 in Calm     96 % 0.00 in 5.00 W/m2
07:53 36.4 °F 35.4 °F 29.91 in Calm     96 % 0.00 in 5.00 W/m2
07:58 36.4 °F 35.4 °F 29.91 in Calm     96 % 0.00 in 7.00 W/m2
08:03 36.4 °F 35.4 °F 29.91 in Calm     96 % 0.00 in 7.00 W/m2
08:08 36.4 °F 35.4 °F 29.92 in Calm     96 % 0.00 in 11.00 W/m2
08:13 36.4 °F 35.4 °F 29.92 in Calm     96 % 0.00 in 11.00 W/m2
08:18 36.5 °F 35.5 °F 29.93 in Calm     96 % 0.05 in 11.00 W/m2
08:23 36.5 °F 35.5 °F 29.93 in Calm     96 % 0.05 in 12.00 W/m2
08:28 36.5 °F 35.5 °F 29.93 in Calm     96 % 0.05 in 16.00 W/m2
08:33 36.6 °F 35.6 °F 29.94 in Calm     96 % 0.04 in 16.00 W/m2
08:38 36.6 °F 35.6 °F 29.94 in Calm     96 % 0.04 in 16.00 W/m2
08:43 36.6 °F 35.6 °F 29.94 in Calm     96 % 0.06 in 16.00 W/m2
08:48 36.6 °F 35.6 °F 29.94 in Calm     96 % 0.06 in 23.00 W/m2
08:53 36.5 °F 35.5 °F 29.94 in Calm     96 % 0.06 in 21.00 W/m2
08:58 36.4 °F 35.4 °F 29.95 in Calm     96 % 0.06 in 18.00 W/m2
09:03 36.4 °F 35.4 °F 29.95 in Calm     96 % 0.04 in 25.00 W/m2
09:08 36.3 °F 35.3 °F 29.95 in Calm     96 % 0.04 in 28.00 W/m2
09:13 36.3 °F 35.3 °F 29.95 in Calm     96 % 0.04 in 28.00 W/m2
09:18 36.2 °F 35.2 °F 29.96 in Calm     96 % 0.04 in 30.00 W/m2
09:23 36.1 °F 35.1 °F 29.96 in Calm     96 % 0.00 in 39.00 W/m2
09:28 36.0 °F 35.0 °F 29.96 in Calm     96 % 0.00 in 54.00 W/m2
09:33 36.0 °F 35.0 °F 29.96 in Calm     96 % 0.06 in 81.00 W/m2
09:38 35.9 °F 34.9 °F 29.97 in Calm     96 % 0.06 in 69.00 W/m2
09:43 35.7 °F 34.7 °F 29.97 in Calm     96 % 0.06 in 90.00 W/m2
09:48 35.6 °F 34.6 °F 29.97 in Calm     96 % 0.05 in 111.00 W/m2
09:53 35.6 °F 34.6 °F 29.97 in Calm     96 % 0.05 in 121.00 W/m2
09:58 35.6 °F 34.6 °F 29.97 in Calm     96 % 0.05 in 88.00 W/m2
10:03 35.6 °F 34.6 °F 29.97 in Calm     96 % 0.00 in 86.00 W/m2
10:08 35.6 °F 34.6 °F 29.97 in Calm     96 % 0.00 in 91.00 W/m2
10:13 35.6 °F 34.6 °F 29.98 in Calm     96 % 0.00 in 93.00 W/m2
10:18 35.6 °F 34.6 °F 29.98 in Calm     96 % 0.00 in 86.00 W/m2
10:23 35.6 °F 34.6 °F 29.98 in Calm     96 % 0.00 in 84.00 W/m2
10:28 35.7 °F 34.7 °F 29.98 in Calm     96 % 0.00 in 84.00 W/m2
10:33 35.6 °F 34.6 °F 29.98 in Calm     96 % 0.00 in 95.00 W/m2
10:38 35.6 °F 34.6 °F 29.98 in Calm     96 % 0.00 in 90.00 W/m2
10:43 35.7 °F 34.7 °F 29.98 in Calm     96 % 0.00 in 113.00 W/m2
10:48 35.7 °F 34.7 °F 29.98 in Calm     96 % 0.00 in 109.00 W/m2
10:53 35.8 °F 34.8 °F 29.98 in Calm     96 % 0.00 in 111.00 W/m2
10:58 35.9 °F 34.9 °F 29.98 in Calm     96 % 0.00 in 113.00 W/m2
11:03 35.9 °F 34.9 °F 29.97 in Calm     96 % 0.00 in 156.00 W/m2
11:08 35.9 °F 34.9 °F 29.97 in Calm     96 % 0.00 in 163.00 W/m2
11:13 35.9 °F 34.9 °F 29.97 in Calm     96 % 0.00 in 151.00 W/m2
11:18 36.0 °F 35.0 °F 29.97 in Calm     96 % 0.00 in 167.00 W/m2
11:23 36.1 °F 35.1 °F 29.97 in Calm     96 % 0.00 in 120.00 W/m2
11:28 36.2 °F 35.2 °F 29.97 in Calm     96 % 0.00 in 109.00 W/m2
11:33 36.3 °F 35.3 °F 29.97 in Calm     96 % 0.00 in 118.00 W/m2
11:38 36.3 °F 35.3 °F 29.96 in Calm     96 % 0.00 in 98.00 W/m2
11:43 36.4 °F 35.4 °F 29.96 in Calm     96 % 0.00 in 120.00 W/m2
11:48 36.4 °F 35.4 °F 29.96 in Calm     96 % 0.00 in 113.00 W/m2
11:53 36.5 °F 35.5 °F 29.96 in Calm     96 % 0.00 in 97.00 W/m2
11:58 36.5 °F 35.5 °F 29.96 in Calm     96 % 0.00 in 125.00 W/m2
12:03 36.5 °F 35.5 °F 29.95 in Calm     96 % 0.00 in 137.00 W/m2
12:09 36.6 °F 35.6 °F 29.95 in Calm     96 % 0.00 in 148.00 W/m2
12:13 36.7 °F 35.7 °F 29.95 in Calm     96 % 0.00 in 165.00 W/m2
12:19 36.8 °F 35.8 °F 29.95 in Calm     96 % 0.00 in 167.00 W/m2
12:24 36.8 °F 35.8 °F 29.95 in Calm     96 % 0.00 in 102.00 W/m2
12:29 36.8 °F 35.8 °F 29.95 in Calm   1.0 mph 96 % 0.00 in 97.00 W/m2
12:34 36.9 °F 35.9 °F 29.95 in Calm     96 % 0.00 in 132.00 W/m2
12:39 36.9 °F 35.9 °F 29.95 in Calm     96 % 0.00 in 128.00 W/m2
12:44 37.0 °F 36.0 °F 29.95 in Calm     96 % 0.00 in 167.00 W/m2
12:49 37.0 °F 36.0 °F 29.95 in Calm     96 % 0.00 in 239.00 W/m2
12:54 37.0 °F 36.0 °F 29.95 in Calm     96 % 0.00 in 199.00 W/m2
12:59 37.1 °F 36.1 °F 29.95 in Calm     96 % 0.00 in 199.00 W/m2
13:04 37.2 °F 36.2 °F 29.95 in Calm     96 % 0.00 in 183.00 W/m2
13:09 37.3 °F 36.3 °F 29.95 in Calm     96 % 0.00 in 130.00 W/m2
13:14 37.3 °F 36.3 °F 29.95 in Calm     96 % 0.00 in 148.00 W/m2
13:19 37.3 °F 36.3 °F 29.95 in Calm     96 % 0.00 in 137.00 W/m2
13:24 37.4 °F 36.4 °F 29.95 in Calm     96 % 0.00 in 134.00 W/m2
13:29 37.4 °F 36.4 °F 29.95 in Calm     96 % 0.00 in 98.00 W/m2
13:34 37.5 °F 36.5 °F 29.95 in Calm     96 % 0.00 in 116.00 W/m2
13:39 37.5 °F 36.5 °F 29.95 in Calm     96 % 0.00 in 113.00 W/m2
13:44 37.5 °F 36.5 °F 29.95 in Calm     96 % 0.00 in 118.00 W/m2
13:49 37.5 °F 36.5 °F 29.95 in Calm     96 % 0.00 in 134.00 W/m2
13:54 37.5 °F 36.5 °F 29.95 in Calm     96 % 0.00 in 127.00 W/m2
13:59 37.6 °F 36.6 °F 29.95 in Calm     96 % 0.00 in 118.00 W/m2
14:04 37.7 °F 36.7 °F 29.95 in Calm     96 % 0.00 in 111.00 W/m2
14:09 37.8 °F 36.8 °F 29.95 in Calm     96 % 0.00 in 163.00 W/m2
14:14 37.9 °F 36.9 °F 29.95 in Calm     96 % 0.00 in 160.00 W/m2
14:19 37.9 °F 36.9 °F 29.95 in Calm     96 % 0.00 in 148.00 W/m2
14:24 38.0 °F 37.0 °F 29.96 in Calm     96 % 0.00 in 72.00 W/m2
14:29 38.0 °F 37.0 °F 29.96 in Calm     96 % 0.00 in 53.00 W/m2
14:34 38.0 °F 37.0 °F 29.96 in Calm     96 % 0.00 in 77.00 W/m2
14:39 38.0 °F 37.0 °F 29.97 in Calm     96 % 0.00 in 91.00 W/m2
14:44 38.0 °F 37.0 °F 29.96 in Calm     96 % 0.00 in 130.00 W/m2
14:49 38.0 °F 37.0 °F 29.97 in Calm     96 % 0.00 in 174.00 W/m2
14:54 38.1 °F 37.1 °F 29.97 in Calm     96 % 0.00 in 141.00 W/m2
14:59 38.1 °F 37.1 °F 29.97 in Calm     96 % 0.00 in 104.00 W/m2
15:04 38.2 °F 37.2 °F 29.98 in Calm     96 % 0.00 in 116.00 W/m2
15:09 38.2 °F 37.2 °F 29.98 in Calm     96 % 0.00 in 128.00 W/m2
15:14 38.3 °F 37.3 °F 29.98 in Calm     96 % 0.00 in 114.00 W/m2
15:20 38.3 °F 37.3 °F 29.98 in Calm     96 % 0.00 in 109.00 W/m2
15:25 38.3 °F 37.3 °F 29.98 in Calm     96 % 0.00 in 90.00 W/m2
15:30 38.4 °F 37.4 °F 29.99 in Calm     96 % 0.00 in 65.00 W/m2
15:35 38.4 °F 37.4 °F 29.99 in Calm     96 % 0.00 in 60.00 W/m2
15:40 38.5 °F 37.5 °F 29.99 in Calm     96 % 0.00 in 62.00 W/m2
15:45 38.5 °F 37.5 °F 29.99 in Calm     96 % 0.00 in 54.00 W/m2
15:50 38.5 °F 37.5 °F 29.99 in Calm     96 % 0.00 in 90.00 W/m2
15:55 38.5 °F 37.5 °F 29.99 in Calm     96 % 0.00 in 76.00 W/m2
16:00 38.4 °F 37.4 °F 29.99 in Calm     96 % 0.00 in 54.00 W/m2
16:05 38.4 °F 37.4 °F 30.00 in Calm     96 % 0.00 in 56.00 W/m2
16:10 38.4 °F 37.4 °F 30.00 in Calm     96 % 0.00 in 53.00 W/m2
16:15 38.4 °F 37.4 °F 30.00 in Calm     96 % 0.00 in 25.00 W/m2
16:20 38.4 °F 37.4 °F 30.00 in Calm     96 % 0.00 in 25.00 W/m2
16:25 38.4 °F 37.4 °F 30.00 in Calm     96 % 0.00 in 21.00 W/m2
16:30 38.4 °F 37.4 °F 30.00 in Calm     96 % 0.00 in 18.00 W/m2
16:35 38.4 °F 37.4 °F 30.00 in Calm     96 % 0.00 in 14.00 W/m2
16:40 38.4 °F 37.4 °F 30.00 in Calm     96 % 0.00 in 11.00 W/m2
16:45 38.3 °F 37.3 °F 30.00 in Calm     96 % 0.00 in 9.00 W/m2
16:50 38.3 °F 37.3 °F 30.00 in Calm     96 % 0.00 in 7.00 W/m2
16:55 38.2 °F 37.2 °F 30.00 in Calm     96 % 0.00 in 5.00 W/m2
17:00 38.0 °F 37.0 °F 30.01 in Calm     96 % 0.00 in 5.00 W/m2
17:05 38.0 °F 37.0 °F 30.01 in Calm     96 % 0.00 in 0.00 W/m2
17:10 37.9 °F 36.9 °F 30.01 in Calm     96 % 0.00 in 0.00 W/m2
17:15 37.8 °F 36.8 °F 30.01 in Calm     96 % 0.00 in 0.00 W/m2
17:20 37.7 °F 36.7 °F 30.01 in Calm     96 % 0.00 in 0.00 W/m2
17:25 37.7 °F 36.7 °F 30.01 in Calm     96 % 0.00 in 0.00 W/m2
17:30 37.7 °F 36.7 °F 30.01 in Calm     96 % 0.00 in 0.00 W/m2
17:35 37.6 °F 36.6 °F 30.01 in Calm     96 % 0.00 in 0.00 W/m2
17:40 37.5 °F 36.5 °F 30.01 in Calm     96 % 0.00 in 0.00 W/m2
17:45 37.5 °F 36.5 °F 30.02 in Calm     96 % 0.00 in 0.00 W/m2
17:50 37.3 °F 36.3 °F 30.02 in Calm     96 % 0.00 in 0.00 W/m2
17:55 37.2 °F 36.2 °F 30.02 in Calm     96 % 0.00 in 0.00 W/m2
18:00 37.1 °F 36.1 °F 30.02 in Calm     96 % 0.00 in 0.00 W/m2
18:05 37.1 °F 36.1 °F 30.03 in Calm     96 % 0.00 in 0.00 W/m2
18:10 37.1 °F 36.1 °F 30.02 in Calm     96 % 0.00 in 0.00 W/m2
18:15 37.0 °F 36.0 °F 30.02 in Calm     96 % 0.00 in 0.00 W/m2
18:20 37.0 °F 36.0 °F 30.02 in Calm     96 % 0.00 in 0.00 W/m2
18:25 37.0 °F 36.0 °F 30.02 in Calm     96 % 0.00 in 0.00 W/m2
18:30 37.0 °F 36.0 °F 30.03 in Calm     96 % 0.00 in 0.00 W/m2
18:35 37.0 °F 36.0 °F 30.03 in Calm     96 % 0.00 in 0.00 W/m2
18:40 36.8 °F 35.8 °F 30.03 in Calm     96 % 0.00 in 0.00 W/m2
18:45 36.7 °F 35.7 °F 30.03 in Calm     96 % 0.00 in 0.00 W/m2
18:50 36.7 °F 35.7 °F 30.03 in Calm     96 % 0.00 in 0.00 W/m2
18:55 36.6 °F 35.6 °F 30.03 in Calm     96 % 0.00 in 0.00 W/m2
19:00 36.4 °F 35.4 °F 30.04 in Calm     96 % 0.00 in 0.00 W/m2
19:05 36.3 °F 35.3 °F 30.04 in Calm     96 % 0.00 in 0.00 W/m2
19:10 36.2 °F 35.2 °F 30.04 in Calm     96 % 0.00 in 0.00 W/m2
19:15 36.1 °F 35.1 °F 30.04 in Calm     96 % 0.00 in 0.00 W/m2
19:20 35.8 °F 34.8 °F 30.04 in Calm     96 % 0.00 in 0.00 W/m2
19:25 35.5 °F 34.5 °F 30.04 in Calm     96 % 0.00 in 0.00 W/m2
19:30 35.3 °F 34.3 °F 30.04 in Calm     96 % 0.00 in 0.00 W/m2
19:35 35.2 °F 34.2 °F 30.04 in Calm     96 % 0.00 in 0.00 W/m2
19:41 35.1 °F 34.1 °F 30.05 in Calm     96 % 0.00 in 0.00 W/m2
19:46 35.0 °F 34.0 °F 30.05 in Calm     96 % 0.00 in 0.00 W/m2
19:51 35.0 °F 34.0 °F 30.05 in Calm     96 % 0.00 in 0.00 W/m2
19:56 35.0 °F 34.0 °F 30.06 in Calm     96 % 0.00 in 0.00 W/m2
20:01 34.9 °F 33.9 °F 30.06 in Calm     96 % 0.00 in 0.00 W/m2
20:06 34.9 °F 33.9 °F 30.06 in Calm     96 % 0.00 in 0.00 W/m2
20:11 35.0 °F 34.0 °F 30.06 in Calm     96 % 0.00 in 0.00 W/m2
20:16 35.0 °F 34.0 °F 30.06 in Calm     96 % 0.00 in 0.00 W/m2
20:21 34.9 °F 33.9 °F 30.06 in Calm     96 % 0.00 in 0.00 W/m2
20:26 34.8 °F 33.8 °F 30.06 in Calm     96 % 0.00 in 0.00 W/m2
20:31 34.7 °F 33.7 °F 30.06 in Calm     96 % 0.00 in 0.00 W/m2
20:36 34.6 °F 33.6 °F 30.06 in Calm     96 % 0.00 in 0.00 W/m2
20:41 34.5 °F 33.5 °F 30.06 in Calm     96 % 0.00 in 0.00 W/m2
20:46 34.4 °F 33.4 °F 30.07 in Calm     96 % 0.00 in 0.00 W/m2
20:51 34.2 °F 33.2 °F 30.07 in Calm     96 % 0.00 in 0.00 W/m2
20:56 34.1 °F 33.1 °F 30.07 in Calm     96 % 0.00 in 0.00 W/m2
21:01 34.1 °F 33.1 °F 30.08 in Calm     96 % 0.00 in 0.00 W/m2
21:06 34.1 °F 33.1 °F 30.08 in Calm     96 % 0.00 in 0.00 W/m2
21:11 34.1 °F 33.1 °F 30.08 in Calm     96 % 0.00 in 0.00 W/m2
21:16 34.1 °F 33.1 °F 30.08 in Calm     96 % 0.00 in 0.00 W/m2
21:21 34.1 °F 33.1 °F 30.08 in Calm     96 % 0.00 in 0.00 W/m2
21:22 34.1 °F 33.1 °F 30.08 in Calm     96 % 0.00 in 0.00 W/m2
21:27 34.2 °F 33.2 °F 30.09 in Calm     96 % 0.00 in 0.00 W/m2
21:32 34.2 °F 33.2 °F 30.09 in Calm     96 % 0.00 in 0.00 W/m2
21:37 34.3 °F 33.3 °F 30.09 in Calm     96 % 0.00 in 0.00 W/m2
21:42 34.3 °F 33.3 °F 30.09 in Calm     96 % 0.00 in 0.00 W/m2
21:47 34.4 °F 33.4 °F 30.09 in Calm     96 % 0.00 in 0.00 W/m2
21:52 34.4 °F 33.4 °F 30.09 in Calm     96 % 0.00 in 0.00 W/m2
21:57 34.4 °F 33.4 °F 30.09 in Calm     96 % 0.00 in 0.00 W/m2
22:03 34.5 °F 33.5 °F 30.09 in Calm     96 % 0.00 in 0.00 W/m2
22:08 34.5 °F 33.5 °F 30.09 in Calm     96 % 0.00 in 0.00 W/m2
22:13 34.5 °F 33.5 °F 30.09 in Calm     96 % 0.00 in 0.00 W/m2
22:18 34.6 °F 33.6 °F 30.09 in Calm     96 % 0.00 in 0.00 W/m2
22:23 34.5 °F 33.5 °F 30.10 in Calm   1.0 mph 96 % 0.00 in 0.00 W/m2
22:28 34.4 °F 33.4 °F 30.10 in Calm     96 % 0.00 in 0.00 W/m2
22:33 34.3 °F 33.3 °F 30.10 in Calm     96 % 0.00 in 0.00 W/m2
22:38 34.2 °F 33.2 °F 30.10 in Calm     96 % 0.00 in 0.00 W/m2
22:43 34.2 °F 33.2 °F 30.10 in Calm     96 % 0.00 in 0.00 W/m2
22:48 34.1 °F 33.1 °F 30.10 in Calm     96 % 0.00 in 0.00 W/m2
22:53 33.9 °F 32.9 °F 30.10 in Calm     96 % 0.00 in 0.00 W/m2
22:58 33.8 °F 32.8 °F 30.10 in Calm     96 % 0.00 in 0.00 W/m2
23:03 33.7 °F 32.7 °F 30.10 in Calm     96 % 0.00 in 0.00 W/m2
23:08 33.6 °F 32.6 °F 30.10 in Calm     96 % 0.00 in 0.00 W/m2
23:13 33.6 °F 32.6 °F 30.11 in ESE 1.0 mph 2.0 mph 96 % 0.00 in 0.00 W/m2
23:18 33.7 °F 32.7 °F 30.11 in Calm   4.0 mph 96 % 0.00 in 0.00 W/m2
23:23 33.8 °F 32.8 °F 30.11 in NNW 1.0 mph 2.0 mph 96 % 0.00 in 0.00 W/m2
23:28 33.8 °F 32.8 °F 30.11 in NNW 1.0 mph 2.0 mph 96 % 0.00 in 0.00 W/m2
23:33 33.8 °F 32.8 °F 30.11 in North 1.0 mph 3.0 mph 96 % 0.00 in 0.00 W/m2
23:38 33.8 °F 32.8 °F 30.11 in North 1.0 mph 2.0 mph 96 % 0.00 in 0.00 W/m2
23:43 33.8 °F 32.8 °F 30.12 in North 1.0 mph 2.0 mph 96 % 0.00 in 0.00 W/m2
23:48 33.9 °F 32.9 °F 30.12 in North 2.0 mph 4.0 mph 96 % 0.00 in 0.00 W/m2
23:53 34.0 °F 33.0 °F 30.12 in Calm   4.0 mph 96 % 0.00 in 0.00 W/m2
23:58 34.0 °F 33.0 °F 30.12 in North 1.0 mph 3.0 mph 96 % 0.00 in 0.00 W/m2
Juneau County Weather
Compliments of Weather Underground - 4.5 mb
 WU-history PHP script courtesy of   Juneau County Weather.
powered by Cumulus v1.9.3 (1059)
Ambient Weather VWS v14.00
Top Contact Website Map Copyright © 2007 - 2018 Foresthillweather.com Never base important decisions on this or any weather information obtained from the Internet